"Pseudo-MPEC" for C1HE7J2

Created 2019 Dec 4 23:07:12 UT using Find_Orb

Click here for an explanation of pseudo-MPECs

 
 Astrometry: 
     C1HE7J2  C2019 12 02.27627 04 11 59.45 +30 57 08.9    ~C27b 20.4 GVNEOCPG96
     C1HE7J2  C2019 12 02.28146 04 11 58.90 +30 57 04.1    ~C27b 21.6 GVNEOCPG96
     C1HE7J2  C2019 12 02.29192 04 11 57.96 +30 56 52.9    ~C27b 21.1 GVNEOCPG96
     C1HE7J2  C2019 12 02.40087 04 11 48.30 +30 54 55.0    ~C2A7 21.0 GVNEOCPI52
     C1HE7J2  C2019 12 02.40337 04 11 48.12 +30 54 52.2    ~C2A7 21.1 GVNEOCPI52
     C1HE7J2  C2019 12 02.40586 04 11 47.90 +30 54 49.4    ~C2A7 21.2 GVNEOCPI52
     C1HE7J2  C2019 12 02.40837 04 11 47.68 +30 54 47.0    ~C2A7 21.3 GVNEOCPI52
     C1HE7J2  C2019 12 03.19106 04 10 42.27 +30 40 43.1    ~C35M       VNEOCPI52
     C1HE7J2  C2019 12 03.19522 04 10 41.85 +30 40 38.5    ~C35M       VNEOCPI52
     C1HE7J2  C2019 12 03.19939 04 10 41.50 +30 40 35.3    ~C35M 21.9 GVNEOCPI52
     C1HE7J2  C2019 12 03.20356 04 10 41.14 +30 40 30.6    ~C35M 21.4 GVNEOCPI52
     C1HE7J2 KC2019 12 04K06Q*6M;WwrxZK/!=')pFx^xAstrometrywoAs:3redacted;xJ#H21
     C1HE7J2 KC2019 12 04O.mIclickJSAH4m1icNqFherexqx7ov,jIG#GqvZMRfor)w`%yNLH21
     C1HE7J2 KC2019 12 040=i_h67_4N/d[y3(WZS703e=qb#PQLnke][#explanationvJQ+4H21

Station data:
(G96) Mt. Lemmon Survey  (N32.442754 W110.788720)  US/Arizona.  Observers T.
   A. Pruyne, B. M. Africano, E. J. Christensen, G. A. Farneth, D. C. Fuls,
   A. R. Gibbs, A. D. Grauer, H. Gröller, J. A. Johnson, R. A. Kowalski, S.
   M. Larson, G. J. Leonard, D. Rankin, R. L. Seaman, F. C. Shelly. 1.5-m
   reflector + 10K CCD.
(H21) Astronomical Research Observatory, Westfield  (N39.483057 W87.968270)
   US/Illinois. 0.76-m f/3.0 astrograph + CCD.
(I52) Steward Observatory, Mt. Lemmon Station  (N32.442547 W110.788920)
   US/Arizona.  Observers T. A. Pruyne, B. M. Africano, E. J. Christensen, G.
   A. Farneth, D. C. Fuls, A. R. Gibbs, A. D. Grauer, H. Gröller, J. A.
   Johnson, R. A. Kowalski, S. M. Larson, G. J. Leonard, D. Rankin, R. L.
   Seaman, F. C. Shelly. 1.0-m reflector + CCD.

Orbital elements:  C1HE7J2
   Perihelion 2019 Mar 7.942015 +/- 33.8 TT = 22:36:30 (JD 2458550.442015)
Epoch 2019 Dec  4.0 TT = JDT 2458821.5   Earth MOID: 0.6941   AutoNEOCP
M 106.50160434 +/- 11               (J2000 ecliptic)
n   0.39291078 +/- 0.0104           Peri.   49.15836 +/- 8
a   1.84617735 +/- 0.0326           Node   262.84530 +/- 0.9
e   0.0904924 +/- 0.0176            Incl.   17.92394 +/- 1.5
P   2.51/916.22d           H 19.8   G  0.15   U  9.7  
q 1.67911229 +/- 0.0439    Q 2.01324240 +/- 0.0475
From 14 observations 2019 Dec. 2-4 (47.7 hr); mean residual 0".38
Residuals in arcseconds: 
191202 G96  .69+  .59-    191202 I52  .10+  .11+    191203 I52  .20+  .11+    
191202 G96  .43-  .18+    191202 I52  .11+  .45+    191204 H21  .04-  .10+    
191202 G96  .53-  .20+    191203 I52  .67+  .73-    191204 H21  .13-  .00     
191202 I52  .41-  .27+    191203 I52  .06-  .90-    191204 H21  .11-  .20+    
191202 I52  .11+  .20+    191203 I52  .13+  .36+    

Ephemerides (geocentric):
Date (UTC) HH   RA              Dec         delta   r     elong  mag " sig PA
---- -- -- --  -------------   -----------  ------ ------ -----  --- ---- ---
2019 12 04 23  04 08 15.363   +30 08 43.78  .93133 1.9079 168.9 21.5 .725  83
2019 12 05 00  04 08 11.964   +30 07 58.24  .93142 1.9080 168.9 21.5 .774  84
2019 12 05 01  04 08 08.567   +30 07 12.70  .93151 1.9080 168.9 21.5 .825  84
2019 12 05 02  04 08 05.173   +30 06 27.14  .93160 1.9081 168.9 21.5 .877  84
2019 12 05 03  04 08 01.782   +30 05 41.58  .93169 1.9081 168.8 21.5 .930  84
2019 12 05 04  04 07 58.393   +30 04 56.01  .93178 1.9081 168.8 21.5 .985  84
2019 12 05 05  04 07 55.007   +30 04 10.42  .93187 1.9082 168.8 21.5 1.04  84
2019 12 05 06  04 07 51.624   +30 03 24.83  .93197 1.9082 168.7 21.5 1.10  84
2019 12 05 07  04 07 48.243   +30 02 39.23  .93206 1.9083 168.7 21.5 1.16  85
2019 12 05 08  04 07 44.865   +30 01 53.62  .93215 1.9083 168.7 21.5 1.22  85
2019 12 05 09  04 07 41.490   +30 01 08.00  .93225 1.9084 168.7 21.5 1.28  85
2019 12 05 10  04 07 38.117   +30 00 22.37  .93234 1.9084 168.6 21.5 1.34  85
2019 12 05 11  04 07 34.748   +29 59 36.73  .93244 1.9084 168.6 21.5 1.41  85
2019 12 05 12  04 07 31.381   +29 58 51.09  .93253 1.9085 168.6 21.5 1.47  85
2019 12 05 13  04 07 28.017   +29 58 05.43  .93263 1.9085 168.6 21.5 1.54  85
2019 12 05 14  04 07 24.655   +29 57 19.77  .93272 1.9086 168.5 21.5 1.61  85
2019 12 05 15  04 07 21.297   +29 56 34.10  .93282 1.9086 168.5 21.5 1.68  85
2019 12 05 16  04 07 17.941   +29 55 48.42  .93292 1.9087 168.5 21.5 1.75  85
2019 12 05 17  04 07 14.588   +29 55 02.73  .93301 1.9087 168.4 21.5 1.82  85
2019 12 05 18  04 07 11.238   +29 54 17.03  .93311 1.9087 168.4 21.5 1.89  85
2019 12 05 19  04 07 07.890   +29 53 31.33  .93321 1.9088 168.4 21.5 1.97  85
2019 12 05 20  04 07 04.546   +29 52 45.62  .93331 1.9088 168.4 21.5 2.05  85
2019 12 05 21  04 07 01.204   +29 51 59.90  .93341 1.9089 168.3 21.5 2.12  85
2019 12 05 22  04 06 57.865   +29 51 14.17  .93351 1.9089 168.3 21.5 2.20  85
2019 12 05 23  04 06 54.529   +29 50 28.43  .93361 1.9090 168.3 21.5 2.29  85
2019 12 06 00  04 06 51.196   +29 49 42.69  .93371 1.9090 168.2 21.5 2.37  85
2019 12 06 01  04 06 47.866   +29 48 56.94  .93381 1.9090 168.2 21.5 2.45  85
2019 12 06 02  04 06 44.538   +29 48 11.18  .93391 1.9091 168.2 21.5 2.54  85
2019 12 06 03  04 06 41.214   +29 47 25.42  .93402 1.9091 168.1 21.5 2.62  85
2019 12 06 04  04 06 37.892   +29 46 39.64  .93412 1.9092 168.1 21.5 2.71  85
2019 12 06 05  04 06 34.573   +29 45 53.86  .93422 1.9092 168.1 21.5 2.80  85
2019 12 06 06  04 06 31.258   +29 45 08.08  .93433 1.9093 168.1 21.5 2.89  85
2019 12 06 07  04 06 27.945   +29 44 22.28  .93443 1.9093 168.0 21.5 2.99  85
2019 12 06 08  04 06 24.635   +29 43 36.48  .93453 1.9093 168.0 21.5 3.08  85
2019 12 06 09  04 06 21.328   +29 42 50.68  .93464 1.9094 168.0 21.5 3.18  85
2019 12 06 10  04 06 18.024   +29 42 04.86  .93474 1.9094 167.9 21.5 3.27  85
2019 12 06 11  04 06 14.722   +29 41 19.04  .93485 1.9095 167.9 21.5 3.37  85
2019 12 06 12  04 06 11.424   +29 40 33.22  .93496 1.9095 167.9 21.5 3.47  85
2019 12 06 13  04 06 08.129   +29 39 47.39  .93506 1.9096 167.8 21.5 3.58  85
2019 12 06 14  04 06 04.837   +29 39 01.55  .93517 1.9096 167.8 21.5 3.68  85
2019 12 06 15  04 06 01.547   +29 38 15.70  .93528 1.9096 167.8 21.5 3.78  85
2019 12 06 16  04 05 58.261   +29 37 29.85  .93539 1.9097 167.7 21.5 3.89  85
2019 12 06 17  04 05 54.978   +29 36 44.00  .93550 1.9097 167.7 21.6 4.00  85
2019 12 06 18  04 05 51.698   +29 35 58.13  .93560 1.9098 167.7 21.6 4.11  85
2019 12 06 19  04 05 48.420   +29 35 12.26  .93571 1.9098 167.6 21.6 4.22  85
2019 12 06 20  04 05 45.146   +29 34 26.39  .93582 1.9099 167.6 21.6 4.33  85
2019 12 06 21  04 05 41.875   +29 33 40.51  .93593 1.9099 167.6 21.6 4.44  85
2019 12 06 22  04 05 38.607   +29 32 54.63  .93605 1.9099 167.5 21.6 4.56  85